Beckley, WV

5:33 AM EDT on March 29, 2017 (GMT -0400)
Raleigh County Memorial

Weather History for KBKW - December, 2013

Change the Weather History Date:

Monday, December 2, 2013

  Actual Average Record
Temperature  
Mean Temperature 45 °F 38 °F  
Max Temperature 49 °F 46 °F 69 °F (1916)
Min Temperature 40 °F 30 °F 4 °F (1960)
Degree Days  
Heating Degree Days 20 27  
Month to date heating degree days 47 54  
Since 1 July heating degree days 1229 1194  
Cooling Degree Days 0 0  
Month to date cooling degree days 0 0  
Year to date cooling degree days 615 557  
Moisture  
Dew Point 33 °F    
Average Humidity 65    
Maximum Humidity 73    
Minimum Humidity 56    
Precipitation  
Precipitation 0.00 in 0.09 in 1.52 in (1991)
Month to date precipitation 0.00 0.19  
Year to date precipitation 36.48 38.38  
Snow  
Snow 0.00 in - - ()
Month to date snowfall 0.0  
Since 1 September snowfall 5.5  
Snow Depth 0.00 in    
Sea Level Pressure  
Sea Level Pressure 29.89 in    
Wind  
Wind Speed 3 mph (South)    
Max Wind Speed 8 mph    
Max Gust Speed 10 mph    
Visibility 10 miles    
Events      
T = Trace of Precipitation, MM = Missing Value Source: NWS Daily Summary

Daily Weather History Graph

Daily Weather History Graph

Search for Another Location

Airport or City:

Trip Planner

Search our weather history database for the weather conditions in past years. The results will help you decide how hot, cold, wet, or windy it might be!

Date:

Astronomy

Dec. 02, 2013 Rise Set
Actual Time 7:22 AM EST 5:05 PM EST
Civil Twilight 6:53 AM EST 5:34 PM EST
Nautical Twilight 6:20 AM EST 6:07 PM EST
Astronomical Twilight 5:49 AM EST 6:38 PM EST
Moon 6:46 AM EST (12/2) 5:06 PM EST (12/2)
Length of Visible Light 10h 41m
Length of Day
9h 43m
Waning Crescent, 0% of the Moon is Illuminated
Dec 2
Waning Crescent
Dec 2
New
Dec 9
First Quarter
Dec 17
Full
Dec 25
Last Quarter

Hourly Weather History & Observations

Time (EST) Temp. Windchill Dew Point Humidity Pressure Visibility Wind Dir Wind Speed Gust Speed Precip Events Conditions
12:51 AM 42.1 °F - 30.9 °F 65% 29.99 in 10.0 mi Calm Calm - N/A   Overcast
1:51 AM 42.1 °F 40.2 °F 30.9 °F 65% 29.98 in 10.0 mi SW 3.5 mph - N/A   Overcast
2:51 AM 42.1 °F 39.2 °F 32.0 °F 67% 29.96 in 10.0 mi South 4.6 mph - N/A   Overcast
3:51 AM 42.1 °F - 30.9 °F 65% 29.95 in 10.0 mi Calm Calm - N/A   Overcast
4:51 AM 41.0 °F 39.0 °F 32.0 °F 70% 29.93 in 10.0 mi South 3.5 mph - N/A   Overcast
5:51 AM 41.0 °F 38.0 °F 32.0 °F 70% 29.93 in 10.0 mi South 4.6 mph - N/A   Overcast
6:51 AM 42.1 °F 40.2 °F 30.9 °F 65% 29.93 in 10.0 mi South 3.5 mph - N/A   Overcast
7:51 AM 41.0 °F - 32.0 °F 70% 29.93 in 10.0 mi Calm Calm - N/A   Overcast
8:49 AM 39.2 °F - 33.8 °F 81% 29.91 in 10.0 mi Calm Calm - N/A   Overcast
8:51 AM 41.0 °F - 33.1 °F 73% 29.94 in 10.0 mi Calm Calm - N/A   Overcast
9:17 AM 42.8 °F - 33.8 °F 70% 29.91 in 10.0 mi Calm Calm - N/A   Overcast
9:24 AM 44.6 °F - 33.8 °F 66% 29.90 in 10.0 mi Calm Calm - N/A   Overcast
9:46 AM 44.6 °F - 32.0 °F 61% 29.90 in 10.0 mi Calm Calm - N/A   Overcast
9:51 AM 45.0 °F - 32.0 °F 60% 29.92 in 10.0 mi Calm Calm - N/A   Overcast
10:51 AM 46.9 °F - 33.1 °F 59% 29.90 in 10.0 mi South 4.6 mph - N/A   Overcast
11:51 AM 46.9 °F - 33.1 °F 59% 29.87 in 10.0 mi South 4.6 mph - N/A   Overcast
12:51 PM 48.0 °F - 33.1 °F 56% 29.86 in 10.0 mi SSW 4.6 mph - N/A   Overcast
1:51 PM 48.0 °F - 33.1 °F 56% 29.83 in 10.0 mi Calm Calm - N/A   Overcast
2:51 PM 48.9 °F - 33.1 °F 54% 29.82 in 10.0 mi West 4.6 mph - N/A   Overcast
3:51 PM 48.0 °F - 34.0 °F 58% 29.82 in 10.0 mi Calm Calm - N/A   Overcast
4:51 PM 46.9 °F - 33.1 °F 59% 29.83 in 10.0 mi SW 3.5 mph - N/A   Overcast
5:51 PM 46.0 °F - 34.0 °F 63% 29.84 in 10.0 mi Calm Calm - N/A   Overcast
6:51 PM 45.0 °F - 34.0 °F 65% 29.84 in 10.0 mi Calm Calm - N/A   Overcast
7:51 PM 45.0 °F - 33.1 °F 63% 29.85 in 10.0 mi Calm Calm - N/A   Overcast
8:51 PM 44.1 °F 41.5 °F 33.1 °F 65% 29.85 in 10.0 mi SSE 4.6 mph - N/A   Overcast
9:51 PM 43.0 °F 40.3 °F 33.1 °F 68% 29.85 in 10.0 mi SSE 4.6 mph - N/A   Overcast
10:35 PM 42.8 °F 39.3 °F 33.8 °F 70% 29.82 in 10.0 mi SE 5.8 mph - N/A   Mostly Cloudy
10:43 PM 42.8 °F 39.3 °F 33.8 °F 70% 29.82 in 10.0 mi SSE 5.8 mph - N/A   Mostly Cloudy
10:51 PM 43.0 °F 38.8 °F 33.1 °F 68% 29.84 in 10.0 mi SSE 6.9 mph - N/A   Scattered Clouds
11:51 PM 43.0 °F 39.5 °F 34.0 °F 71% 29.84 in 10.0 mi South 5.8 mph - N/A   Mostly Cloudy
11:59 PM 42.8 °F 38.6 °F 33.8 °F 70% 29.83 in 10.0 mi South 6.9 mph - N/A   Mostly Cloudy